Overview Statistics Trail Chart Weather Telemetry Raw packets
 

This is the latest recevied weather packets stored in our database for station/object KG7DQI-13. If no packets are shown the sender has not sent any weather packets the latest 10 day(s).

<< 3 4 5 6 7 8 9 >>
Time Temp. Humidity Pressure Rain* Wind** Luminosity Snow
1788419427 10° C 77% 909.8 hPa 0 mm - 0 W/m² -
1788418535 10.56° C 77% 909.5 hPa 0 mm - 0 W/m² -
1788417645 10.56° C 76% 909.3 hPa 0 mm - 0 W/m² -
1788416707 10.56° C 76% 909.3 hPa 0 mm - 0 W/m² -
1788415783 10.56° C 77% 909.2 hPa 0 mm - 0 W/m² -
1788413034 10.56° C 86% 909.1 hPa 0 mm - 0 W/m² -
1788412105 11.11° C 84% 908.8 hPa 0 mm - 0 W/m² -
1788411184 10.56° C 82% 909.5 hPa 0 mm - 0 W/m² -
1788409401 10.56° C 84% 908.9 hPa 0 mm - 0 W/m² -
1788408481 10.56° C 83% 908.7 hPa 0 mm - 0 W/m² -
1788407616 10.56° C 82% 908.6 hPa 0 mm - 0 W/m² -
1788405850 11.11° C 79% 908.1 hPa 0 mm - 0 W/m² -
1788404986 11.11° C 77% 908.1 hPa 0 mm - 0 W/m² -
1788404117 11.67° C 78% 907.9 hPa 0 mm - 0 W/m² -
1788403239 11.67° C 74% 907.9 hPa 0 mm - 0 W/m² -
1788401367 10.56° C 84% 908.1 hPa 0 mm - 18 W/m² -
1788400481 10.56° C 83% 908.1 hPa 0 mm - 5 W/m² -
1788397830 11.11° C 81% 908.6 hPa 1.27 mm - 12 W/m² -
1788394203 13.33° C 83% 908.7 hPa 0 mm - 37 W/m² -
1788393297 13.89° C 83% 908.3 hPa 0 mm - 69 W/m² -
1788391538 14.44° C 75% 907.9 hPa 0 mm - 44 W/m² -
1788390627 14.44° C 78% 907.8 hPa 0 mm - 81 W/m² -
1788389763 14.44° C 78% 907.8 hPa 0 mm - 74 W/m² -
1788388820 14.44° C 77% 907.8 hPa 0 mm - 79 W/m² -
1788387010 14.44° C 74% 907.3 hPa 0 mm - 190 W/m² -

* Rain latest hour (hover to see other rain measurements)
** Current wind speed in m/s (hover to see current wind gust speed)